SPACEBEE-56 (47468 NORAD) Tracking and Keplerian Element Data

This shows tracking and keplerian element data for the satellite.

Feedback or suggestion? Click here.




ElementValue
Catalog47468
NameSPACEBEE-56
Epoch Orbit1262
Epoch Day106.14743642
Epoch Year2021
RAAN168.3238
Inclination97.493
Eccentricity0.0005959
Argument of Perigee337.0541
Mean Anonmoly23.0423
Mean Motion15.11970778
Decay Rate1.882E-05
L11 47468U 21006BH 21106.14743642 .00001882 00000-0 11340-3 0 9990
L22 47468 97.4930 168.3238 0005959 337.0541 23.0423 15.11970778 12626

Live tracking and technical data element details for SPACEBEE-56 (NORAD 47468). SPACEBEE-56 can be tracked NOW for your location showing map with azimuth and elevation plus other details from your city location.

Track the satellite on the map from your city or location and see movement details for azimuth, elevation, latitude, longitude, range, height, and movement on the map or in text.







IsCatalogInMostPopularTable: catalog: 47468, numindb: 14
Update: records affected: 1



GetName: 47468 SPACEBEE-56

Hit Count: updated at: Fri, 16 Apr 2021 12:19:44 GMT